Dewpoint
29 30 32 34 38 39 40 43 44 44 44 44 44 44 44 44 45 43 39 41 39 34 34 35 33 30 30 30 28 30 29 27 25 23 22 21 27 28 28 28 24 21 20 21 24 23 19 25 28 25 25 25 27 34
30 29 29 33 34 37 39 39 42 43 43 44 44 44 44 44 44 44 39 43 44 38 36 39 38 36 34 32 29 31 31 32 35 33 31 27 25 25 24 21 24 22 23 21 23 22 26 27 26 30 31 31 32 32
27 28 29 30 32 34 37 39 40 41 43 43 43 43 42 43 43 43 41 43 42 38 37 38 36 38 38 36 36 32 32 32 32 37 34 33 29 30 26 26 24 25 26 25 25 24 25 27 26 26 26 29 30 32
25 26 26 28 30 33 35 37 39 40 41 42 42 43 43 43 43 43 42 43 42 38 31 34 39 38 38 38 38 38 36 37 37 37 33 32 29 35 29 28 27 27 28 26 26 27 27 27 27 27 27 27 28 30
24 25 25 26 29 31 33 35 38 39 40 41 42 41 41 42 44 44 44 44 45 39 32 33 38 39 39 39 38 38 37 37 36 33 32 31 34 34 34 33 30 30 28 26 25 27 28 27 30 32 31 31 30 33
24 24 28 27 28 29 32 34 36 38 39 40 41 40 41 43 44 43 39 45 46 46 36 31 38 37 40 39 38 37 38 38 38 33 33 36 38 35 30 27 29 29 30 30 29 30 30 30 30 31 31 32 33 33
25 25 28 27 27 28 31 33 36 38 39 39 41 42 43 44 44 40 36 43 46 46 34 31 32 35 38 40 39 39 39 39 38 34 32 34 35 36 32 29 29 29 29 30 31 31 30 30 29 29 29 28 32 33
25 25 26 28 27 27 30 33 35 37 39 40 42 42 43 43 43 42 45 46 46 41 38 32 30 28 39 34 34 38 34 34 33 33 33 32 32 35 30 29 29 28 29 29 30 30 30 29 29 29 29 29 29 31
26 25 26 26 28 26 30 32 34 38 38 40 41 42 43 43 38 41 45 46 46 40 32 32 25 21 38 34 35 34 36 30 34 31 32 32 26 27 30 30 29 28 27 27 29 30 30 29 29 30 30 29 30 30
26 25 26 26 27 27 30 32 33 38 38 41 39 36 32 38 43 44 42 38 37 37 39 33 31 30 35 34 32 30 32 29 28 29 32 30 26 29 29 29 29 31 36 35 33 32 34 34 33 34 34 32 32 34
26 25 25 26 27 27 31 31 33 38 39 38 33 32 38 42 40 37 32 32 33 30 34 33 30 30 33 27 29 30 29 29 24 24 25 27 27 29 29 29 32 33 35 36 36 35 36 36 35 35 38 38 39 39
24 25 26 26 26 28 30 30 34 37 36 37 37 38 36 33 32 31 30 31 31 27 29 30 28 29 28 32 26 29 28 25 23 32 29 26 29 30 30 33 35 36 34 34 34 36 36 39 39 39 37 37 37 36
26 25 25 26 25 28 29 30 34 36 37 39 35 31 30 30 26 26 23 28 27 29 33 29 32 33 33 30 29 28 23 22 29 28 24 24 29 33 32 32 32 32 33 34 35 35 34 34 34 35 33 34 33 32
27 28 27 26 26 27 29 29 33 35 37 32 29 25 27 25 26 29 27 27 29 29 33 31 28 29 32 30 29 26 26 27 19 16 18 26 29 30 30 29 30 32 31 33 33 33 32 31 30 31 31 32 31 30
26 25 26 26 27 27 27 29 32 36 35 30 31 25 26 28 32 31 33 31 32 35 33 32 32 29 29 28 30 28 25 23 21 17 23 29 30 29 28 29 31 31 31 30 31 30 30 30 29 30 31 32 31 31
26 25 23 26 26 28 29 35 35 36 35 32 33 29 32 32 32 32 31 32 34 33 33 32 30 28 27 28 25 23 23 18 21 27 29 29 29 30 29 31 31 31 31 31 31 31 31 30 30 30 30 30 30 29
25 24 26 28 31 37 37 35 36 33 31 32 29 31 31 29 30 31 31 30 34 32 30 30 27 26 29 27 26 27 22 28 30 30 29 30 29 29 30 31 30 30 30 31 31 31 30 30 28 27 26 27 26 26
25 26 30 30 34 34 36 35 33 33 30 30 26 27 31 32 30 30 31 32 33 32 31 28 29 27 21 23 27 28 30 30 30 29 29 31 30 30 31 30 31 31 31 31 31 31 30 28 27 27 26 25 25 24
26 29 27 27 34 32 31 33 34 28 28 30 29 28 34 32 31 33 32 33 34 34 31 28 25 26 27 30 26 27 28 28 29 30 31 31 32 31 32 32 32 31 31 31 30 29 28 27 27 26 25 24 23 23
29 29 27 29 34 31 31 32 36 32 28 27 27 28 31 32 32 31 31 31 31 30 25 25 26 28 28 30 31 28 29 30 30 30 30 30 32 32 32 31 30 31 30 29 28 28 26 26 26 25 24 23 22 22
27 27 27 29 32 31 31 29 28 29 29 26 29 29 28 31 30 29 30 31 28 28 23 26 29 30 30 32 32 33 31 30 28 27 29 30 32 32 31 30 30 29 27 27 26 25 25 24 24 22 22 21 20 19
30 33 34 32 30 32 32 30 28 29 28 27 29 29 27 26 27 28 30 26 24 27 26 26 30 31 32 33 34 34 33 32 33 33 33 32 30 30 29 29 28 27 26 26 25 24 24 24 23 21 19 15 12 10
30 32 32 32 29 27 26 31 27 28 25 28 30 29 29 29 29 30 25 27 29 31 31 32 32 33 32 33 34 33 33 32 32 31 30 29 29 28 27 27 26 25 24 24 24 23 22 20 19 18 15 13 9 5
32 28 29 27 27 17 30 23 27 27 29 29 28 25 28 28 32 27 25 28 30 32 32 31 33 32 32 33 32 31 30 30 30 30 29 28 27 27 27 26 26 26 26 26 25 23 22 20 17 14 11 7 4 2
24 25 26 15 21 18 18 18 23 23 21 27 23 23 23 29 26 22 20 27 30 31 32 32 32 32 30 30 31 31 30 29 28 27 28 27 26 25 25 25 26 25 23 18 13 11 8 9 10 8 7 2 -0 -3
19 19 15 18 15 17 19 13 14 16 21 20 24 26 27 21 18 20 26 28 30 32 32 31 31 30 30 30 29 29 29 28 27 27 27 27 26 24 23 22 21 22 19 15 11 8 5 4 4 3 0 -3 -7 -7
10 10 24 26 24 23 20 22 25 21 16 18 21 19 18 10 11 23 29 30 31 32 32 31 31 30 28 26 25 24 23 24 23 21 21 20 19 20 21 18 14 20 18 12 8 6 3 0 -1 -1 -3 -7 -13 -13
18 23 14 20 22 23 14 16 14 12 21 25 22 16 11 11 18 26 29 32 33 31 30 29 29 27 25 23 22 20 20 20 19 19 17 16 15 13 12 13 14 14 12 9 6 3 2 -0 -3 -3 -4 -5 -11 -16
20 26 22 14 17 19 21 24 22 25 26 22 11 16 17 24 27 28 29 30 29 28 26 25 25 25 23 22 21 21 20 20 17 11 9 10 3 8 6 5 8 10 9 7 9 4 0 -0 -2 -3 -4 -5 -10 -11
20 25 18 11 9 16 24 27 23 17 22 22 22 22 22 22 23 26 30 29 28 26 26 25 25 24 23 23 23 23 19 10 9 13 11 7 4 5 -1 3 3 1 8 8 7 7 9 3 3 -4 -5 -7 -10 -12
25 21 17 16 11 25 23 22 21 19 16 15 13 13 16 20 23 24 23 26 29 28 27 26 25 25 23 23 21 19 17 12 9 13 14 13 10 8 5 2 -1 0 3 3 2 -0 -2 -6 -6 -8 -9 -12 -15 -16
17 10 11 10 21 23 18 17 15 19 13 9 12 7 10 9 9 16 21 22 29 27 27 26 24 21 21 19 16 12 14 15 14 14 13 12 11 9 8 6 4 2 -0 -2 -3 -4 -6 -7 -9 -10 -13 -14 -16 -18
12 10 13 11 15 14 14 12 12 17 14 20 20 8 2 2 6 12 21 20 24 22 18 16 16 16 16 14 12 12 11 12 12 14 11 10 7 8 5 4 3 1 -2 -3 -4 -6 -7 -9 -10 -13 -14 -15 -18 -22
Lifted_Index
12 12 11 11 10 9 9 8 8 8 8 8 7 7 7 7 8 9 9 9 9 10 10 9 8 8 7 7 7 6 6 5 3 3 2 2 1 0 0 0 1 1 1 1 0 1 1 1 1 1 1 1 1 0
12 12 12 11 11 10 9 8 8 8 8 8 7 7 7 7 8 8 9 8 8 9 9 9 8 7 7 6 6 6 5 4 3 2 2 1 1 1 0 0 1 1 1 1 1 1 1 1 1 1 1 1 1 1
12 12 12 12 11 11 10 9 9 8 8 8 7 8 8 7 7 8 8 7 7 8 8 8 6 6 5 5 5 5 4 3 3 2 2 2 1 1 1 1 1 1 1 1 1 1 2 2 1 1 1 1 1 1
12 12 12 12 12 11 10 10 9 8 8 8 7 8 8 7 7 7 7 7 7 7 7 6 5 4 4 4 4 4 3 3 3 3 2 2 2 2 1 1 1 1 1 1 1 2 2 2 2 2 2 1 1 1
12 12 12 12 12 11 11 10 10 9 8 8 8 8 8 7 7 6 6 6 5 5 5 5 4 4 3 3 3 3 3 3 2 2 2 2 2 2 2 2 2 2 1 1 1 1 1 1 1 1 1 1 1 1
12 12 12 12 12 12 11 11 10 9 9 8 8 7 7 7 6 6 5 4 3 3 4 4 4 3 3 2 2 2 2 2 2 2 2 2 2 2 1 1 1 1 1 1 1 1 1 1 1 1 1 1 1 2
11 11 11 11 12 12 12 11 10 9 9 8 7 7 7 6 5 5 4 3 3 2 3 3 3 3 2 2 2 2 2 2 2 2 2 2 2 1 1 1 1 1 1 1 1 1 1 1 1 1 2 2 2 2
11 11 11 11 12 12 11 11 10 9 9 8 7 7 6 5 5 4 3 3 3 2 3 3 3 2 2 2 2 2 2 2 2 2 2 2 2 1 1 1 1 1 1 1 1 1 1 1 2 2 2 2 2 2
11 11 11 11 11 11 11 11 10 9 8 7 7 6 5 4 3 3 3 3 3 3 3 3 2 2 2 2 2 2 2 2 2 2 2 2 2 2 1 1 1 1 1 1 1 1 1 1 2 1 1 1 1 1
11 11 11 11 11 11 11 10 10 9 8 7 6 5 4 3 3 2 2 2 3 3 3 2 2 1 2 2 2 2 3 3 2 2 2 2 2 1 1 0 0 0 1 1 1 2 2 2 2 2 1 0 1 1
10 10 11 11 11 11 11 10 9 8 7 6 6 5 4 3 2 2 2 2 2 3 3 2 1 1 1 2 2 2 3 3 2 2 2 2 2 1 1 1 1 1 1 2 2 3 3 3 2 1 0 0 1 1
10 10 10 11 11 11 10 10 9 8 7 6 5 5 4 3 2 2 2 2 2 2 2 2 1 1 1 2 2 2 3 3 2 2 2 2 2 2 1 1 1 2 2 3 3 3 3 2 2 1 1 1 2 2
10 10 10 10 10 10 10 10 9 8 7 6 5 4 3 2 1 1 2 2 2 2 2 1 1 1 1 2 2 2 2 2 2 2 2 2 2 2 2 2 2 3 3 3 3 4 3 2 2 2 2 3 4 4
10 10 10 10 10 10 10 10 9 8 6 5 4 3 2 2 1 1 1 2 2 1 1 1 1 1 2 2 2 2 2 2 2 2 2 2 2 2 3 3 3 3 3 4 4 4 4 4 4 4 5 5 6 7
9 10 10 10 10 10 10 9 9 7 6 4 3 2 2 2 1 1 1 1 1 1 1 1 1 1 2 2 2 2 2 2 2 2 2 3 3 3 3 4 4 4 4 5 5 6 6 6 6 6 7 8 8 9
9 9 10 10 10 9 9 8 7 6 5 4 3 2 2 2 1 1 1 1 1 1 1 1 1 1 2 2 2 2 2 1 2 2 3 3 4 4 4 4 5 5 6 6 7 7 7 7 7 8 8 9 9 9
9 9 9 9 9 8 7 7 6 5 4 3 3 2 2 2 1 1 2 2 1 1 1 2 2 2 2 2 2 2 2 2 2 3 3 4 4 4 4 5 6 6 7 7 7 7 7 8 8 8 8 9 10 10
9 9 9 9 9 7 6 5 4 4 3 3 3 2 2 2 2 2 2 2 2 2 2 2 2 2 2 2 2 2 2 2 2 3 4 4 4 5 5 5 6 6 7 7 7 7 7 7 8 8 9 9 10 11
9 9 9 9 8 7 5 4 4 3 3 3 2 2 2 2 2 2 3 2 2 2 2 2 2 2 2 2 2 2 2 2 3 3 4 4 4 5 5 5 5 5 6 6 6 7 7 7 8 9 9 10 10 10
9 9 9 9 7 5 3 3 3 3 2 2 2 2 2 2 2 3 3 3 3 2 2 3 3 3 3 3 3 3 3 3 3 4 4 4 5 5 5 5 5 5 5 5 6 6 7 7 8 9 9 10 10 10
8 8 8 8 6 3 2 2 2 2 2 2 2 2 2 2 3 3 3 3 3 3 3 3 3 3 4 4 4 4 4 4 4 4 4 4 5 5 5 5 5 5 5 5 5 6 6 7 8 9 9 9 10 10
8 7 6 5 4 2 1 1 2 2 2 2 2 2 2 3 3 3 4 4 4 4 4 4 4 4 4 5 5 5 5 5 5 5 5 5 5 5 5 5 5 5 5 5 6 6 7 7 8 9 9 10 11 11
7 5 4 3 2 1 1 1 1 2 2 2 2 2 2 3 3 3 4 4 4 5 5 5 5 5 5 5 5 5 5 5 5 5 5 5 5 5 5 5 5 5 5 6 6 7 7 9 10 10 11 11 12 12
5 3 2 2 2 1 1 1 1 1 1 2 2 2 2 3 3 3 4 4 4 5 5 5 5 5 5 5 5 5 5 5 5 5 5 5 5 5 5 5 5 6 6 7 7 8 9 10 11 11 12 12 13 13
3 2 2 2 2 2 2 2 2 2 1 1 2 2 2 2 3 3 4 4 4 5 5 5 5 5 4 5 5 5 5 5 4 4 5 5 4 4 4 5 5 7 8 8 8 9 9 10 11 12 13 13 13 13
2 2 2 2 2 2 2 2 2 2 1 1 2 2 2 3 3 3 4 4 5 5 5 5 5 5 4 4 5 5 5 5 4 4 4 5 5 5 5 5 6 7 9 10 10 10 11 12 12 13 13 13 13 13
2 2 2 3 3 2 2 2 2 2 2 2 2 2 2 3 3 3 4 4 5 5 5 5 5 5 5 5 5 5 5 5 5 5 5 6 6 7 7 7 8 9 10 12 12 13 13 13 13 14 14 14 14 14
2 2 2 2 2 2 2 2 2 2 2 2 2 2 2 3 3 3 4 4 4 5 5 5 5 5 5 5 5 5 5 5 5 6 6 7 8 8 9 9 10 11 12 14 14 15 15 15 14 14 14 14 14 14
2 2 2 2 2 2 2 2 2 2 2 2 2 2 2 3 3 4 4 4 4 4 4 4 4 4 5 5 5 5 5 6 6 6 7 7 8 9 10 11 12 13 14 15 15 16 16 15 15 14 14 14 14 15
2 2 2 2 2 2 2 2 2 2 2 2 2 2 2 3 4 4 4 4 4 4 4 4 4 4 4 5 5 5 6 7 7 7 8 8 8 9 10 12 13 14 15 15 15 15 15 15 14 14 14 14 15 15
2 2 2 3 3 3 3 3 2 2 2 2 2 2 3 3 4 5 4 4 4 4 4 4 4 4 5 5 6 7 7 8 8 8 8 9 9 10 11 13 14 15 15 15 15 15 14 14 14 14 14 14 15 15
3 3 3 3 4 4 4 3 3 3 3 3 3 3 3 3 4 5 6 5 5 4 4 4 5 5 5 6 7 8 8 8 8 9 9 10 11 12 13 14 15 16 15 15 15 14 14 14 13 14 14 14 15 15
3 3 4 4 4 5 4 4 4 4 3 3 3 4 4 3 3 5 6 6 5 5 5 5 5 6 6 7 8 8 8 8 9 9 10 11 12 13 14 15 16 16 15 15 15 14 14 14 14 14 14 15 15 15